When you browse on this site, cookies collect data to enhance your experience and personalize the content and advertising you see.
Visit our Privacy Policy to learn more. By continuing to use the site, you agree to this use of cookies and data.
  • In Hungary
  • List of Countries
  • For 7 days
  • Water Temperature
  • Weather Map
  • News
  • Weather Widgets
  • user-avatar
    Login

    Hourly Weather Udine

    Today, 12 December, Thursday

    Time Temperature Precipitation Wind Pressure Humidity
    00:00 +2°C° 0 mm 1 mps 747 mmHg 53%
    01:00 +1°C° 0 mm 2 mps 747 mmHg 54%
    02:00 +1°C° 0 mm 2 mps 746 mmHg 55%
    03:00 +1°C° 0 mm 2 mps 746 mmHg 56%
    04:00 +2°C° 0 mm 1 mps 745 mmHg 56%
    05:00 +1°C° 0 mm 2 mps 746 mmHg 57%
    06:00 +1°C° 0 mm 2 mps 746 mmHg 58%
    07:00 +1°C° 0 mm 2 mps 746 mmHg 58%
    08:00 +2°C° 0 mm 2 mps 746 mmHg 56%
    09:00 +3°C° 0 mm 2 mps 746 mmHg 53%
    10:00 +4°C° 0 mm 2 mps 745 mmHg 51%
    11:00 +4°C° 0 mm 2 mps 745 mmHg 51%
    12:00 +5°C° 0 mm 2 mps 745 mmHg 52%
    13:00 +7°C° 0 mm 1 mps 744 mmHg 52%
    14:00 +6°C° 0.1 mm 1 mps 744 mmHg 57%
    15:00 +5°C° 0.1 mm 1 mps 744 mmHg 62%
    16:00 +5°C° 0.1 mm 1 mps 743 mmHg 67%
    17:00 +4°C° 0.1 mm 1 mps 743 mmHg 71%
    18:00 +4°C° 0.1 mm 1 mps 743 mmHg 75%
    19:00 +4°C° 0.1 mm 1 mps 743 mmHg 79%
    20:00 +4°C° 0 mm 1 mps 743 mmHg 79%
    21:00 +3°C° 0 mm 1 mps 742 mmHg 80%
    22:00 +3°C° 0 mm 1 mps 742 mmHg 81%
    23:00 +3°C° 0.1 mm 1 mps 742 mmHg 83%

    Tomorrow, 13 December, Friday

    Time Temperature Precipitation Wind Pressure Humidity
    00:00 +3°C° 0.1 mm 1 mps 741 mmHg 84%
    01:00 +3°C° 0.1 mm 1 mps 741 mmHg 86%
    02:00 +3°C° 0.1 mm 1 mps 740 mmHg 89%
    03:00 +2°C° 0.1 mm 1 mps 739 mmHg 92%
    04:00 +2°C° 0.1 mm 1 mps 738 mmHg 95%
    05:00 +2°C° 0 mm 1 mps 738 mmHg 95%
    06:00 +2°C° 0 mm 1 mps 738 mmHg 95%
    07:00 +2°C° 0 mm 1 mps 737 mmHg 96%
    08:00 +2°C° 0.1 mm 1 mps 736 mmHg 94%
    09:00 +3°C° 0.1 mm 1 mps 736 mmHg 93%
    10:00 +3°C° 0.1 mm 1 mps 735 mmHg 92%
    11:00 +2°C° 0.3 mm 2 mps 734 mmHg 92%
    12:00 +3°C° 0.3 mm 2 mps 733 mmHg 92%
    13:00 +2°C° 0.3 mm 3 mps 732 mmHg 92%
    14:00 +2°C° 1.4 mm 3 mps 732 mmHg 91%
    15:00 +2°C° 1.4 mm 3 mps 731 mmHg 91%
    16:00 +3°C° 1.4 mm 4 mps 730 mmHg 90%
    17:00 +3°C° 1.1 mm 4 mps 730 mmHg 88%
    18:00 +2°C° 1.1 mm 5 mps 730 mmHg 85%
    19:00 +2°C° 1.1 mm 5 mps 731 mmHg 83%
    20:00 +3°C° 0.1 mm 4 mps 731 mmHg 81%
    21:00 +3°C° 0.1 mm 3 mps 732 mmHg 79%
    22:00 +3°C° 0.1 mm 3 mps 733 mmHg 78%
    23:00 +3°C° 0 mm 3 mps 734 mmHg 78%

    Day after tomorrow, 14 December, Saturday

    Time Temperature Precipitation Wind Pressure Humidity
    00:00 +4°C° 0 mm 2 mps 735 mmHg 79%
    01:00 +4°C° 0 mm 2 mps 736 mmHg 80%
    02:00 +4°C° 0 mm 2 mps 737 mmHg 80%
    03:00 +3°C° 0 mm 2 mps 738 mmHg 79%
    04:00 +3°C° 0 mm 2 mps 739 mmHg 78%
    05:00 +2°C° 0 mm 2 mps 740 mmHg 77%
    06:00 +2°C° 0 mm 2 mps 741 mmHg 76%
    07:00 +2°C° 0 mm 2 mps 742 mmHg 75%
    08:00 +3°C° 0 mm 2 mps 742 mmHg 73%
    09:00 +5°C° 0 mm 1 mps 743 mmHg 70%
    10:00 +6°C° 0 mm 1 mps 744 mmHg 68%
    11:00 +7°C° 0 mm 1 mps 744 mmHg 66%
    12:00 +8°C° 0 mm 1 mps 744 mmHg 65%
    13:00 +9°C° 0 mm 1 mps 744 mmHg 63%
    14:00 +8°C° 0 mm 1 mps 745 mmHg 66%
    15:00 +7°C° 0 mm 1 mps 745 mmHg 69%
    16:00 +6°C° 0 mm 1 mps 746 mmHg 73%
    17:00 +6°C° 0 mm 1 mps 747 mmHg 73%
    18:00 +5°C° 0 mm 1 mps 748 mmHg 72%
    19:00 +5°C° 0 mm 1 mps 748 mmHg 72%
    20:00 +4°C° 0 mm 2 mps 749 mmHg 71%
    21:00 +4°C° 0 mm 2 mps 749 mmHg 70%
    22:00 +3°C° 0 mm 2 mps 750 mmHg 69%
    23:00 +4°C° 0 mm 2 mps 750 mmHg 68%

    15 December, Sunday

    Time Temperature Precipitation Wind Pressure Humidity
    00:00 +4°C° 0 mm 2 mps 750 mmHg 67%
    01:00 +4°C° 0 mm 2 mps 750 mmHg 66%
    02:00 +4°C° 0 mm 2 mps 750 mmHg 66%
    03:00 +3°C° 0 mm 2 mps 751 mmHg 65%
    04:00 +3°C° 0 mm 2 mps 751 mmHg 65%
    05:00 +3°C° 0 mm 2 mps 751 mmHg 64%
    06:00 +3°C° 0 mm 2 mps 751 mmHg 64%
    07:00 +3°C° 0 mm 2 mps 751 mmHg 64%
    08:00 +5°C° 0 mm 1 mps 752 mmHg 64%
    09:00 +6°C° 0 mm 1 mps 752 mmHg 63%
    10:00 +7°C° 0 mm 1 mps 752 mmHg 63%
    11:00 +8°C° 0 mm 1 mps 752 mmHg 63%
    12:00 +8°C° 0 mm 1 mps 752 mmHg 64%
    13:00 +9°C° 0 mm 1 mps 752 mmHg 64%
    14:00 +8°C° 0 mm 1 mps 752 mmHg 67%
    15:00 +8°C° 0 mm 1 mps 753 mmHg 71%
    16:00 +7°C° 0 mm 1 mps 753 mmHg 74%
    17:00 +7°C° 0 mm 1 mps 753 mmHg 75%
    18:00 +7°C° 0 mm 1 mps 754 mmHg 76%
    19:00 +7°C° 0 mm 1 mps 754 mmHg 77%
    20:00 +7°C° 0 mm 1 mps 755 mmHg 77%
    21:00 +7°C° 0 mm 1 mps 755 mmHg 77%
    22:00 +7°C° 0 mm 1 mps 755 mmHg 78%
    23:00 +7°C° 0 mm 1 mps 756 mmHg 79%

    16 December, Monday

    Time Temperature Precipitation Wind Pressure Humidity
    00:00 +8°C° 0 mm 1 mps 756 mmHg 80%
    01:00 +8°C° 0 mm 1 mps 756 mmHg 81%
    02:00 +8°C° 0 mm 1 mps 755 mmHg 82%
    03:00 +8°C° 0 mm 1 mps 755 mmHg 83%
    04:00 +8°C° 0 mm 1 mps 755 mmHg 84%
    05:00 +8°C° 0 mm 1 mps 755 mmHg 85%
    06:00 +8°C° 0 mm 1 mps 755 mmHg 86%
    07:00 +8°C° 0 mm 1 mps 755 mmHg 87%
    08:00 +8°C° 0 mm 1 mps 755 mmHg 87%
    09:00 +9°C° 0 mm 1 mps 755 mmHg 87%
    10:00 +9°C° 0 mm 1 mps 755 mmHg 87%
    11:00 +10°C° 0 mm 1 mps 755 mmHg 87%
    12:00 +10°C° 0 mm 1 mps 755 mmHg 86%
    13:00 +10°C° 0 mm 1 mps 754 mmHg 86%
    14:00 +9°C° 0 mm 0 mps 754 mmHg 87%
    15:00 +9°C° 0 mm 0 mps 754 mmHg 88%
    16:00 +9°C° 0 mm 0 mps 754 mmHg 89%
    17:00 +9°C° 0 mm 0 mps 754 mmHg 90%
    18:00 +10°C° 0 mm 1 mps 754 mmHg 90%
    19:00 +9°C° 0 mm 1 mps 754 mmHg 91%
    20:00 +9°C° 0 mm 1 mps 754 mmHg 91%
    21:00 +9°C° 0 mm 1 mps 754 mmHg 90%
    22:00 +9°C° 0 mm 1 mps 754 mmHg 90%
    23:00 +10°C° 0 mm 1 mps 754 mmHg 90%

    17 December, Tuesday

    Time Temperature Precipitation Wind Pressure Humidity
    00:00 +10°C° 0 mm 1 mps 754 mmHg 90%
    01:00 +10°C° 0 mm 1 mps 753 mmHg 90%
    02:00 +10°C° 0 mm 1 mps 753 mmHg 90%
    03:00 +10°C° 0 mm 1 mps 754 mmHg 90%
    04:00 +10°C° 0 mm 1 mps 754 mmHg 90%
    05:00 +10°C° 0 mm 1 mps 754 mmHg 90%
    06:00 +10°C° 0 mm 1 mps 754 mmHg 89%
    07:00 +11°C° 0 mm 1 mps 753 mmHg 89%
    08:00 +11°C° 0 mm 1 mps 754 mmHg 89%
    09:00 +11°C° 0 mm 1 mps 754 mmHg 90%
    10:00 +12°C° 0 mm 1 mps 754 mmHg 90%
    11:00 +12°C° 0.2 mm 1 mps 754 mmHg 91%
    12:00 +12°C° 0.2 mm 1 mps 753 mmHg 91%
    13:00 +13°C° 0.2 mm 1 mps 753 mmHg 92%
    14:00 +13°C° 0.2 mm 1 mps 753 mmHg 93%
    15:00 +13°C° 0.2 mm 1 mps 754 mmHg 93%
    16:00 +13°C° 0.2 mm 1 mps 754 mmHg 94%
    17:00 +13°C° 0.2 mm 1 mps 754 mmHg 94%
    18:00 +13°C° 0.2 mm 1 mps 754 mmHg 95%
    19:00 +13°C° 0.2 mm 1 mps 755 mmHg 96%
    20:00 +12°C° 0.3 mm 1 mps 755 mmHg 96%
    21:00 +12°C° 0.3 mm 1 mps 755 mmHg 96%
    22:00 +12°C° 0.3 mm 1 mps 756 mmHg 96%
    23:00 +12°C° 0.2 mm 1 mps 756 mmHg 96%
    Show more